[[{"header":{"parameterUnit":"m.s-1","parameterCategory":1,"la1":30.2991,"la2":30.254,"lo1":-89.0895,"lo2":-89.0444,"dy":0.0017,"dx":0.0017,"nx":28,"ny":28,"refTime":"2023-08-20T21:00:00:Z","depth":0,"parameterNumber":2,"parameterNumberName":"U-component_of_WINDS"},"data":[0,0,0,0,0,0,0,0,0,0,0,0,0,0,0,0,0,0,0,0,0,0,0,0,0,0,0,0,0,0,0,0,0,0,0,0,0,0,0,0,0,0,0,0,0,0,0,0,0,0,0,0,0,0,0,0,0,0,-2.0822,-2.0823,0,-2.0851,-2.0851,-2.0852,-2.0791,-2.0789,-2.0787,-2.0785,-2.0814,-2.0816,-2.0819,0,0,0,0,0,0,0,0,0,0,0,0,0,-2.0714,-2.0716,-2.0822,-2.0823,-2.0823,-2.0851,-2.0851,-2.0852,-2.0791,-2.0789,-2.0786,-2.0784,-2.0813,-2.0816,-2.0819,0,0,0,0,0,0,0,0,0,0,0,0,0,-2.0754,-2.0717,-2.0822,-2.0796,-2.0794,-2.0851,-2.0851,-2.0852,-2.0792,-2.0789,-2.0786,-2.0783,-2.0812,-2.0816,-2.082,-2.0903,0,0,-2.0832,-2.0833,0,0,0,0,0,0,0,0,-2.0751,-2.0758,-2.08,-2.0798,-2.0796,-2.0814,-2.0824,-2.0869,-2.0792,-2.0793,-2.0785,-2.0781,-2.0816,-2.082,-2.0832,-2.0904,-2.0906,-2.0832,-2.0834,-2.0836,-2.0837,0,0,0,0,0,0,0,-2.0749,-2.0756,-2.0833,-2.08,-2.0798,-2.0783,-2.0785,-2.0832,-2.0821,-2.0792,-2.0788,-2.0792,-2.0815,-2.0828,-2.0832,-2.0906,-2.0832,-2.0835,-2.0838,-2.0839,-2.1047,-2.105,0,0,0,0,0,0,-2.0749,-2.0754,-2.0833,-2.0834,-2.0766,-2.0787,-2.079,-2.0811,-2.082,-2.0818,-2.0795,-2.0789,-2.0823,-2.0827,-2.0833,-2.093,-2.0836,-2.084,-2.0842,-2.1044,-2.1048,-2.1051,0,0,0,0,0,0,-2.0747,-2.0757,-2.0831,-2.0793,-2.0801,-2.0792,-2.0817,-2.0813,-2.0826,-2.0822,-2.0819,-2.081,-2.0821,-2.0827,-2.0886,-2.093,-2.0841,-2.0845,-2.104,-2.1045,-2.105,-2.1126,0,0,0,0,0,0,-2.0745,-2.0757,-2.0789,-2.0794,-2.0804,-2.0885,-2.082,-2.0816,-2.0833,-2.0827,-2.0836,-2.0834,-2.0819,-2.088,-2.089,-2.0934,-2.0848,-2.1036,-2.1043,-2.1048,-2.112,-2.1133,-2.1144,0,0,0,0,0,-2.0741,-2.0809,-2.0791,-2.08,-2.0843,-2.0887,-2.0893,-2.0873,-2.0837,-2.0869,-2.0866,-2.0834,-2.0924,-2.0887,-2.0897,-2.0943,-2.1034,-2.1041,-2.1048,-2.1114,-2.113,-2.1144,0,0,0,0,0,0,-2.0809,-2.0809,-2.0789,-2.0861,-2.0875,-2.0877,-2.0917,-2.0891,-2.0915,-2.0908,-2.0883,-2.0885,-2.0949,-2.0952,-2.091,-2.1024,-2.0972,-2.0982,-2.1019,-2.1035,-2.1047,-2.1045,-2.0851,0,0,0,0,0,-2.0832,-2.0868,-2.0867,-2.093,-2.0938,-2.0926,-2.0945,-2.0929,-2.0942,-2.0947,-2.0948,-2.0962,-2.0993,-2.1014,-2.1042,-2.112,-2.112,-2.1156,-2.1169,-2.1179,-2.1187,-2.1228,-2.1244,-2.1075,-2.1075,-2.1075,0,0,-2.0881,-2.0886,-2.091,-2.0944,-2.0953,-2.099,-2.0932,-2.0974,-2.1001,-2.0953,-2.1009,-2.101,-2.1024,-2.1092,-2.1122,-2.1096,-2.1234,-2.1188,-2.1196,-2.1199,-2.1237,-2.1253,-2.1267,-2.108,-2.1079,-2.1078,0,0,-2.0989,-2.0996,-2.105,-2.106,-2.1073,-2.1065,-2.1078,-2.1084,-2.1083,-2.1138,-2.1103,-2.1135,-2.1189,-2.12,-2.1213,-2.1324,-2.1295,-2.1334,-2.1398,-2.1438,-2.1451,-2.1463,-2.1502,-2.1516,-2.1342,-2.1342,-2.1342,0,-2.1048,-2.1103,-2.1081,-2.1125,-2.1141,-2.1099,-2.1153,-2.1163,-2.1186,-2.1198,-2.1168,-2.1235,-2.1241,-2.1311,-2.1338,-2.135,-2.1363,-2.1332,-2.1451,-2.1462,-2.1473,-2.151,-2.1525,-2.1347,-2.1346,-2.1346,-2.1345,0,-2.1175,-2.1213,-2.1255,-2.1277,-2.1298,-2.1347,-2.1331,-2.1354,-2.1336,-2.1331,-2.1387,-2.1393,-2.1421,-2.1437,-2.1419,-2.1504,-2.1487,-2.1455,-2.1403,-2.1494,-2.1528,-2.1542,-2.1353,-2.1352,-2.135,-2.1349,0,0,-2.1327,-2.1336,-2.1351,-2.1361,-2.1372,-2.1402,-2.1448,-2.1476,-2.1496,-2.1513,-2.1551,-2.1597,-2.1567,-2.1582,-2.1565,-2.16,-2.1687,-2.1563,-2.1563,-2.1586,-2.178,-2.1804,-2.1821,-2.1668,-2.1671,-2.1673,-2.1779,0,-2.1434,-2.1514,-2.1495,-2.1574,-2.1609,-2.157,-2.161,-2.1621,-2.1617,-2.1646,-2.1641,-2.1674,-2.1632,-2.1641,-2.1673,-2.167,-2.1726,-2.1662,-2.1703,-2.1705,-2.1701,-2.1839,-2.1865,-2.1965,-2.1792,-2.1794,-2.1796,0,-2.1569,-2.1591,-2.1674,-2.1678,-2.1692,-2.1729,-2.1753,-2.1781,-2.1792,-2.1787,-2.1803,-2.1779,-2.1825,-2.1772,-2.1834,-2.1791,-2.1807,-2.1808,-2.1811,-2.1814,-2.1756,-2.1846,-2.1996,-2.2011,-2.1817,-2.1815,-2.1814,0,-2.1672,-2.1721,-2.1777,-2.1786,-2.1794,-2.182,-2.1825,-2.1833,-2.1851,-2.1871,-2.1882,-2.1908,-2.1922,-2.1942,-2.1926,-2.1889,-2.199,-2.1937,-2.1987,-2.1987,-2.201,-2.2009,-2.2165,-2.202,-2.202,-2.202,-2.2019,0,-2.1793,-2.1845,-2.1823,-2.1858,-2.1915,-2.1892,-2.1949,-2.1948,-2.1956,-2.1989,-2.1956,-2.1988,-2.1965,-2.1994,-2.1982,-2.2035,-2.2041,-2.2038,-2.2034,-2.2041,-2.2041,-2.2051,-2.2044,-2.2024,-2.2023,-2.2022,-2.2021,0,-2.1918,-2.1905,-2.1963,-2.1965,-2.1966,-2.2008,-2.201,-2.2041,-2.2034,-2.2077,-2.2085,-2.2074,-2.2108,-2.2093,-2.2128,-2.2119,-2.2188,-2.2174,-2.2184,-2.218,-2.2231,-2.2227,-2.2399,-2.242,-2.2262,-2.2264,-2.2265,0,-2.1996,-2.2035,-2.2041,-2.2061,-2.2067,-2.21,-2.2117,-2.2096,-2.2115,-2.2131,-2.2161,-2.2191,-2.2214,-2.2269,-2.2264,-2.229,-2.2277,-2.2335,-2.2281,-2.2286,-2.2278,-2.2276,-2.2279,-2.2347,-2.2348,-2.235,-2.2351,0,-2.2136,-2.2128,-2.2154,-2.2179,-2.2201,-2.2219,-2.2235,-2.2253,-2.2231,-2.2255,-2.2289,-2.2306,-2.2342,-2.2372,-2.2395,-2.2399,-2.2372,-2.2368,-2.2381,-2.2389,-2.2393,-2.2391,-2.2214,-2.2365,-2.2363,-2.2362,-2.2362,-2.2361,-2.224,-2.2273,-2.2282,-2.2312,-2.2321,-2.2336,-2.2366,-2.2362,-2.239,-2.2417,-2.2402,-2.2441,-2.245,-2.2478,-2.2486,-2.2515,-2.2492,-2.2511,-2.2516,-2.2521,-2.2528,-2.2388,-2.252,-2.2519,-2.2519,-2.2518,-2.2518,0,-2.2379,-2.2382,-2.241,-2.2433,-2.2457,-2.2428,-2.2444,-2.2466,-2.25,-2.2511,-2.2534,-2.2572,-2.2601,-2.2598,-2.2625,-2.2649,-2.2637,-2.2657,-2.2655,-2.2656,-2.2547,-2.2533,-2.2666,-2.2666,-2.2666,-2.2666,-2.2666,-2.2666,-2.2454,-2.2507,-2.25,-2.2557,-2.256,-2.2598,-2.2609,-2.2622,-2.263,-2.2674,-2.2698,-2.2696,-2.2701,-2.2727,-2.2752,-2.2751,-2.2762,-2.2786,-2.278,-2.2678,-2.2664,-2.265,-2.2637,-2.2789,-2.2789,-2.2886,-2.2887,-2.2888]},{"header":{"parameterUnit":"m.s-1","parameterCategory":1,"la1":30.2991,"la2":30.254,"lo1":-89.0895,"lo2":-89.0444,"dy":0.0017,"dx":0.0017,"nx":28,"ny":28,"refTime":"2023-08-20T21:00:00:Z","depth":0,"parameterNumber":3,"parameterNumberName":"V-component_of_WINDS"},"data":[0,0,0,0,0,0,0,0,0,0,0,0,0,0,0,0,0,0,0,0,0,0,0,0,0,0,0,0,0,0,0,0,0,0,0,0,0,0,0,0,0,0,0,0,0,0,0,0,0,0,0,0,0,0,0,0,0,0,0.0062,0.0062,0,0.0069,0.0069,0.0069,0.0042,0.0041,0.004,0.0039,0.0046,0.0047,0.0048,0,0,0,0,0,0,0,0,0,0,0,0,0,0.0024,0.0025,0.0062,0.0062,0.0062,0.0069,0.0069,0.0069,0.0042,0.0041,0.004,0.0039,0.0046,0.0047,0.0048,0,0,0,0,0,0,0,0,0,0,0,0,0,0.0037,0.0026,0.0062,0.0049,0.0048,0.0069,0.0069,0.0069,0.0042,0.0041,0.004,0.0038,0.0045,0.0047,0.0048,0.0081,0,0,0.0052,0.0053,0,0,0,0,0,0,0,0,0.0036,0.0039,0.0051,0.005,0.0049,0.0053,0.0058,0.0073,0.0042,0.0044,0.0039,0.0038,0.0049,0.005,0.0054,0.0082,0.0082,0.0052,0.0053,0.0054,0.0054,0,0,0,0,0,0,0,0.0036,0.0038,0.0065,0.0051,0.005,0.0043,0.0044,0.0061,0.0054,0.0044,0.0042,0.0043,0.0049,0.0053,0.0054,0.0082,0.0052,0.0054,0.0055,0.0055,0.0138,0.0139,0,0,0,0,0,0,0.0036,0.0038,0.0065,0.0065,0.004,0.0045,0.0045,0.0053,0.0053,0.0052,0.0044,0.0042,0.0051,0.0053,0.0054,0.0094,0.0054,0.0055,0.0056,0.0136,0.0138,0.014,0,0,0,0,0,0,0.0036,0.0039,0.0064,0.0051,0.0053,0.0047,0.0056,0.0054,0.0058,0.0054,0.0052,0.005,0.005,0.0052,0.0075,0.0094,0.0056,0.0057,0.0135,0.0137,0.0139,0.0173,0,0,0,0,0,0,0.0035,0.0039,0.0052,0.0051,0.0054,0.0085,0.0057,0.0055,0.0061,0.0058,0.0059,0.0058,0.005,0.0073,0.0076,0.0095,0.0058,0.0133,0.0136,0.0138,0.017,0.0176,0.018,0,0,0,0,0,0.0034,0.006,0.0052,0.0056,0.007,0.0086,0.0088,0.0078,0.0063,0.0075,0.0072,0.0058,0.0091,0.0076,0.0079,0.0098,0.0132,0.0135,0.0138,0.0167,0.0174,0.018,0,0,0,0,0,0,0.0063,0.006,0.0051,0.0079,0.0083,0.0081,0.0097,0.0085,0.0094,0.0091,0.0078,0.0078,0.0103,0.0103,0.0086,0.0131,0.0109,0.0113,0.013,0.0137,0.0142,0.0141,0.0059,0,0,0,0,0,0.0072,0.0086,0.0083,0.0108,0.011,0.0103,0.011,0.0102,0.0106,0.0107,0.0106,0.011,0.0121,0.0129,0.0139,0.017,0.017,0.0185,0.019,0.0195,0.0198,0.0215,0.0221,0.015,0.015,0.0149,0,0,0.0092,0.0093,0.0102,0.0114,0.0116,0.013,0.0105,0.0121,0.0131,0.011,0.0131,0.013,0.0134,0.0161,0.0173,0.0162,0.0218,0.0198,0.0202,0.0203,0.0219,0.0225,0.0231,0.0152,0.0151,0.0151,0,0,0.0136,0.0138,0.0159,0.0162,0.0166,0.0161,0.0166,0.0167,0.0166,0.0187,0.0171,0.0184,0.0203,0.0207,0.0211,0.0258,0.0245,0.0261,0.0289,0.0305,0.0311,0.0316,0.0333,0.0339,0.0265,0.0265,0.0265,0,0.016,0.0181,0.0171,0.0188,0.0194,0.0176,0.0197,0.02,0.0207,0.0212,0.0199,0.0224,0.0225,0.0253,0.0265,0.0269,0.0274,0.0261,0.0311,0.0316,0.032,0.0336,0.0343,0.0267,0.0267,0.0266,0.0266,0,0.0211,0.0226,0.0242,0.025,0.0258,0.0277,0.027,0.0279,0.0271,0.0268,0.029,0.0291,0.0301,0.0307,0.0299,0.0334,0.0327,0.0313,0.0291,0.0329,0.0344,0.035,0.027,0.0269,0.0268,0.0268,0,0,0.0272,0.0275,0.0281,0.0285,0.0288,0.03,0.0318,0.0329,0.0337,0.0343,0.0358,0.0376,0.0363,0.0368,0.0361,0.0375,0.0412,0.0359,0.0359,0.0369,0.0451,0.0462,0.0469,0.0404,0.0405,0.0406,0.0451,0,0.0315,0.0347,0.0339,0.0371,0.0385,0.0368,0.0385,0.0389,0.0387,0.0398,0.0395,0.0408,0.0391,0.0394,0.0407,0.0405,0.0429,0.0402,0.0418,0.0419,0.0418,0.0477,0.0487,0.053,0.0457,0.0458,0.0458,0,0.0369,0.0378,0.0411,0.0414,0.0419,0.0434,0.0443,0.0455,0.0459,0.0456,0.0463,0.0452,0.0471,0.0449,0.0475,0.0457,0.0463,0.0463,0.0465,0.0466,0.0441,0.0479,0.0543,0.0549,0.0467,0.0467,0.0466,0,0.0411,0.0431,0.0453,0.0457,0.046,0.0471,0.0473,0.0476,0.0483,0.0492,0.0496,0.0507,0.0512,0.052,0.0513,0.0498,0.054,0.0518,0.0539,0.0539,0.0548,0.0548,0.0614,0.0553,0.0553,0.0553,0.0552,0,0.0459,0.0481,0.0472,0.0486,0.051,0.05,0.0524,0.0523,0.0527,0.0541,0.0527,0.054,0.053,0.0543,0.0537,0.056,0.0562,0.0561,0.0559,0.0562,0.0562,0.0566,0.0562,0.0554,0.0554,0.0554,0.0553,0,0.0509,0.0505,0.0528,0.053,0.0531,0.0548,0.0549,0.0562,0.0559,0.0577,0.0581,0.0576,0.059,0.0584,0.0599,0.0595,0.0624,0.0618,0.0623,0.0621,0.0643,0.0641,0.0713,0.0723,0.0656,0.0656,0.0657,0,0.0541,0.0557,0.056,0.0568,0.0571,0.0585,0.0592,0.0584,0.0592,0.06,0.0612,0.0625,0.0635,0.0658,0.0656,0.0668,0.0662,0.0687,0.0664,0.0666,0.0662,0.0662,0.0663,0.0691,0.0692,0.0693,0.0693,0,0.0597,0.0594,0.0605,0.0616,0.0626,0.0634,0.0641,0.0648,0.064,0.0651,0.0665,0.0673,0.0688,0.0701,0.0712,0.0713,0.0702,0.0701,0.0706,0.0709,0.0711,0.071,0.0635,0.0699,0.0698,0.0698,0.0698,0.0697,0.0638,0.0652,0.0656,0.067,0.0674,0.0681,0.0694,0.0693,0.0705,0.0717,0.0712,0.0729,0.0734,0.0746,0.075,0.0763,0.0753,0.0761,0.0763,0.0765,0.0768,0.0709,0.0765,0.0765,0.0765,0.0764,0.0764,0,0.0693,0.0696,0.0708,0.0719,0.073,0.0719,0.0726,0.0736,0.0751,0.0757,0.0767,0.0784,0.0797,0.0797,0.0809,0.0819,0.0815,0.0823,0.0822,0.0822,0.0776,0.077,0.0826,0.0826,0.0826,0.0826,0.0826,0.0826,0.0723,0.0746,0.0744,0.0769,0.0771,0.0788,0.0793,0.08,0.0804,0.0824,0.0835,0.0835,0.0838,0.0851,0.0862,0.0862,0.0867,0.0877,0.0875,0.0832,0.0826,0.082,0.0814,0.0879,0.0879,0.092,0.0921,0.0921]}]]